Virginia Peak (RGX), Nevada Weather observations

 Day   Time    Ave.   Ave.  Ave.  Vector  Max.   Total    Solar  
  of    of     Air    Rel.  Wind   Wind   Wind  Precip.   Rad.   
Year   Day     Temp.  Hum.  Speed  Dir.   Gust                   
2014   (PST)    F      %     mph   deg.    mph    in.     W/m2  
----------------------------------------------------------------
 297   14:15   59.0    25   25.2   224    27.4   999.00     999
 297   14:30   59.0    25   16.8   219    30.6   999.00     999
 297   14:45   59.0    24   21.0   227   999.0   999.00     999
 297   15:00   59.0    23   36.6   245    39.6   999.00     999
 297   15:15   59.0    23   33.6   226    41.4   999.00     999
 297   15:30   58.0    24  999.0   999    40.8   999.00     999
 297   15:45   58.0    24   30.0   240    37.8   999.00     999
 297   16:00   58.0    24   34.2   249    39.0   999.00     999
 297   16:15   57.0    24   33.0   235    39.0   999.00     999
 297   16:30   56.0    24   30.0   228    37.2   999.00     999
 297   16:45   56.0    24   31.2   216    35.4   999.00     999
 297   17:00   54.0   999   30.6   224    34.8   999.00     999
 297   17:15   54.0    26   30.6    98    35.4   999.00     999
 297   17:30   53.0    26  999.0   212    33.6   999.00     999
 297   17:45   52.0    27  999.0   234    32.4   999.00     999
 297   18:00   52.0    27   28.2   229    32.4   999.00     999
 297   18:15   52.0   999   31.2   233    32.4   999.00     999
 297   18:30   54.0    28   29.2   236   999.0   999.00     999
 297   18:45   51.0    28   26.4   244    33.0   999.00     999
 297   19:00   51.0    29   27.0   252    31.8   999.00     999
 297   19:15   50.0    30   28.8   243    33.0   999.00     999
 297   19:30   50.0    30   27.0   999    31.8   999.00     999
 297   19:45   50.0    30   27.0   999    42.2   999.00     999
 297   20:00   50.0    31   25.4   249    30.0   999.00     999
 297   20:15   49.0    30  999.0   234   999.0   999.00     999
 297   20:30   49.0    29   25.2   245    30.0   999.00     999
 297   20:45   49.0    28   24.6   266    30.0   999.00     999
 297   21:00   49.0    27   22.8   246    29.4   999.00     999
 297   21:15   49.0    26   25.2   232    28.2   999.00     999
 297   21:30   48.0   999   25.2   999    28.2   999.00     999
 297   21:45  999.0    26   10.6   230    26.4   999.00     999
 297   22:00   49.0    24   25.8   237    30.6   999.00     999
 297   22:15   49.0    24   34.2   208    36.0   999.00     999
 297   22:30   49.0    23   30.0   211    34.8   999.00     999
 297   22:45   82.0    21   11.8   189    35.4   999.00     999
 297   23:00   50.0    21  999.0   999   999.0   999.00     999
 297   23:15   50.0    21   30.6   212    38.4   999.00     999
 297   23:30   50.0    21   33.6   201    38.4   999.00     999
 297   23:45   49.0    21  999.0   215    39.0   999.00     999
 298    0:00   49.0    21   32.4   200    40.2   999.00     999
 298    0:15   49.0    22   31.8   183    37.8   999.00     999
 298    0:30   49.0    22  999.0   188    46.8   999.00     999
 298    0:45   48.0    31   32.2   999    39.6   999.00     999
 298    1:00   48.0    23   25.2   207    37.8   999.00     999
 298    1:15   48.0    23   32.4   178    36.6   999.00     999
 298    1:30   48.0    23   33.6   180    33.6   999.00     999
 298    1:45  999.0    23   25.2   999    39.0   999.00     999
 298    2:00   47.0    24   25.2   203    38.4   999.00     999
 298    2:15   47.0    24  999.0   194    37.8   999.00     999
 298    2:30  999.0    25   30.0   999    43.8   999.00     999
 298    2:45   46.0    24   32.4   203    39.0   999.00     999
 298    3:00  999.0    24   31.8   196    39.6   999.00     999
 298    3:15   46.0    89   34.8   201    40.2   999.00     999
 298    3:30   46.0    25   30.0   219    37.8   999.00     999
 298    3:45   46.0    26   32.4   211    43.8   999.00     999
 298    4:00   45.0    28   34.8   207    43.2   999.00     999
 298    4:15   45.0    30  999.0   213    41.4   999.00     999
 298    4:30   45.0    32   37.2   222    42.6   999.00     999
 298    4:45   45.0    34   47.4   219    47.4   999.00     999
 298    5:00   45.0    35   42.0   212    46.8   999.00     999
 298    5:15   44.0    35   27.4   221    48.0   999.00     999
 298    5:30   44.0    35   43.8   207    49.2   999.00     999
 298    5:45   44.0    34   45.6   224    52.8   999.00     999
 298    6:00   44.0    34   43.2   222    54.0   999.00     999
 298    6:15   43.0    34   48.0   225    57.0   999.00     999
 298    6:30  999.0   999  999.0   999    54.6   999.00     999
 298    6:45   43.0    35   43.2   999    51.0   999.00     999
 298    7:00   43.0    36   47.4   228    50.4   999.00     999
 298    7:15   42.0    38  999.0   243    48.0   999.00     999
 298    7:30   33.0    43   41.4   233   999.0   999.00     999
 298    7:45  999.0   999  999.0   999   999.0   999.00     999
 298    8:00   41.0    43   51.0   208    64.8   999.00     999
 298    8:15   41.0    40   46.8   209    55.2   999.00     999
 298    8:30   41.0    41   40.8   224    54.6   999.00     999
 298    8:45   42.0    40   39.6   207    54.0   999.00     999
 298    9:00   42.0    37   50.4   222    51.6   999.00     999
 298    9:15   42.0    38   45.6   209    56.4   999.00     999
 298    9:30   43.0    38  999.0   209    61.2   999.00     999
 298    9:45   43.0    37   56.4   230    65.4   999.00     999
 298   10:00   44.0    37   57.6   223    65.4   999.00     999
 298   10:15   44.0    33   55.8   232    64.8   999.00     999
 298   10:30   44.0    38   46.2   218    68.4   999.00     999
 298   10:45  108.0    40   52.8   208    64.2   999.00     999
 298   11:00   45.0    10   59.4   226    66.6   999.00     999
 298   11:15   45.0    43   54.6   223    63.6   999.00     999
 298   11:30   45.0    45   58.2    75   999.0   999.00     999
 298   11:45   44.0    47   54.6   222    71.4   999.00     999
 298   12:00  999.0    50   65.4   238   999.0   999.00     999
 298   12:15   36.0    91  999.0   999    69.6   999.00     999
 298   12:30  999.0   100   52.8   253    63.0   999.00     999
 298   12:45  999.0   999  999.0   999   999.0   999.00     999
 298   13:00  999.0    87   51.6     6    58.2   999.00     999
 298   13:15   34.0   999   55.2   252    56.4   999.00     999
 298   13:30   32.0    93   49.2   246    61.8   999.00     999
 298   13:45  999.0   999  999.0   999   999.0   999.00     999
 298   14:00   32.0    89   58.2   256    68.4   999.00     999

Return to Virginia Peak (RGX) graphs page.


Western Regional Climate Center,wrcc@dri.edu